Regional Weather Roundup
Issued by NWS

Home | Current Version | Previous Version | Text Only | Print | Product List | Glossary Off
Versions: 1 2 3 4 5 6 7 8 9 10 11 12 13 14 15 16 17 18 19 20 21 22 23 24 25 26 27 28 29 30 31 32 33 34 35 36 37 38 39 40 41 42 43 44 45 46 47 48 49 50

000
ASUS44 KMEG 282110
RWRTN
TENNESSEE HOURLY STATE WEATHER ROUNDUP
NATIONAL WEATHER SERVICE MEMPHIS TN
400 PM CDT THU APR 28 2016

TNZ002-004-019-021-049-052-054-088>092-282200-
WEST TENNESSEE

CITY           SKY/WX    TMP DP  RH WIND       PRES   REMARKS
MEMPHIS INTL   MOSUNNY   84  53  34 N3        29.93F
NWS MEMPHIS      N/A     83 N/A N/A MISG        N/A
JACKSON        SUNNY     81  53  37 W9        29.92F
DYERSBURG      SUNNY     82  48  30 W10       29.93S
UNION CITY     SUNNY     81  50  34 W7        29.91S
LEXINGTON      SUNNY     82  54  36 W5        29.91F
$$

TNZ008-025-027-028-033-062-065-066-282200-
NORTH MIDDLE TENNESSEE

CITY           SKY/WX    TMP DP  RH WIND       PRES   REMARKS
NASHVILLE      PTSUNNY   83  53  35 W10G18    29.89F
CLARKSVILLE    SUNNY     78  52  40 SW12      29.90S
SMYRNA         SUNNY     86  55  34 W16       29.90S
COOKEVILLE     MOSUNNY   82  63  51 VRB6      29.90S
CROSSVILLE     SUNNY     78  56  46 W16G26    29.95S
$$

TNZ061-075-076-078-094-096-097-282200-
SOUTH MIDDLE TENNESSEE

CITY           SKY/WX    TMP DP  RH WIND       PRES   REMARKS
FAYETTEVILLE   MOSUNNY   82  59  44 W14       29.92F
TULLAHOMA      MOSUNNY   81  57  44 SW10      29.93S
WINCHESTER     MOSUNNY   82  55  39 W7        29.92S
MCMINNVILLE    MOSUNNY   82  61  47 W14       29.91S
COLUMBIA       SUNNY     84  55  37 SW12      29.90S
SHELBYVILLE    MOSUNNY   84  63  48 SW12      29.92R
$$

TNZ017-018-042-046-047-282200-
NORTHEAST TENNESSEE

CITY           SKY/WX    TMP DP  RH WIND       PRES   REMARKS
TRI CITIES     MOSUNNY   80  54  40 SW13      29.88F
$$

TNZ012-013-036-069-073-074-282200-
CENTRAL EAST TENNESSEE

CITY           SKY/WX    TMP DP  RH WIND       PRES   REMARKS
KNOXVILLE      MOSUNNY   83  54  36 SW16      29.89F
OAK RIDGE      SUNNY     83  55  38 VRB7      29.89F
GATLINBURG     CLEAR     82  50  32 W12       29.88F
MORRISTOWN     CLEAR     81  55  41 W13G18    29.89F
$$

TNZ083-085-099-282200-
SOUTHEAST TENNESSEE

CITY           SKY/WX    TMP DP  RH WIND       PRES   REMARKS
CHATTANOOGA    MOSUNNY   85  52  32 W9G20     29.90S
$$

SKY/WX REPORTED AS FAIR MEANS FEW OR NO CLOUDS BELOW
12 THOUSAND FEET.





USA.gov is the U.S. government's official web portal to all federal, state and local government web resources and services.